Tracking 18630 objects as of 22-May-2017
HD Live streaming from Space Station
objects crossing your sky now

COSMOS 2430

Track COSMOS 2430 now!
COSMOS 2430 is classified as:


NORAD ID: 32268
Int'l Code: 2007-049A
Perigee: 252.6 km
Apogee: 40,139.1 km
Inclination: 63.2 °
Period: 718.2 minutes
Semi major axis: 26566 km
RCS: 3.1623 m2 (large)
Launch date: October 23, 2007
Source: Commonwealth of Independent States (former USSR) (CIS)
Launch site: PLESETSK MISSILE AND SPACE COMPLEX (PKMTR)
Your satellite tracking list
Your tracking list is empty





NASA's NSSDC Master Catalog

Two Line Element Set (TLE):
1 32268U 07049A   17141.50164982 +.00000444 +00000-0 +35249-3 0  9998
2 32268 063.2367 318.4500 7506809 241.4267 025.9714 02.00489713070180
Source of the keplerian elements: AFSPC